Wind_Speed
19 19 20 21 20 21 22 22 22 21 21 21 22 23 24 25 26 27 27 28 28 29 29 29 29 29 27 28 27 27 28 30 30 30 32 33 33 33 33 32 32 32 32 31
18 19 19 19 20 21 21 21 22 21 21 21 22 22 23 24 25 26 27 27 28 28 28 26 26 27 27 26 25 25 26 27 28 28 28 30 31 31 32 31 30 30 31 31
18 18 18 18 18 19 20 20 21 21 21 21 21 22 23 25 26 26 27 27 27 27 27 25 25 25 26 25 24 24 23 24 25 26 27 28 28 28 27 28 29 28 28 30
18 18 19 18 19 20 20 20 20 20 21 22 22 22 23 24 25 25 26 26 26 26 26 24 24 24 24 24 23 21 21 22 23 24 25 25 25 25 25 25 26 27 28 28
18 18 18 18 19 20 20 20 20 20 21 21 22 22 23 24 24 25 25 25 25 25 25 25 24 24 23 22 21 21 21 20 21 21 22 23 23 24 24 25 26 27 27 28
19 18 18 19 19 19 20 21 20 21 21 22 22 23 23 23 24 24 24 24 24 24 24 24 24 24 21 20 20 19 19 19 18 19 21 21 21 22 23 23 24 25 25 25
19 20 20 19 19 20 21 21 21 22 22 22 23 23 24 24 24 24 24 23 23 24 24 23 23 22 21 20 19 18 18 19 19 19 19 19 20 21 22 22 23 23 23 24
19 19 19 20 20 20 21 21 21 22 22 21 22 22 23 23 23 24 24 23 23 23 22 22 22 21 20 20 19 18 18 19 19 18 18 18 18 19 20 21 21 21 22 22
19 19 19 20 20 21 21 21 21 21 21 21 22 22 22 23 22 23 23 24 23 23 22 21 21 21 20 20 19 19 19 19 19 18 18 18 18 18 18 19 20 20 21 21
19 19 19 20 20 20 21 21 21 22 22 22 22 22 22 23 23 23 24 23 23 23 22 22 22 21 20 19 19 19 19 18 18 18 18 18 17 17 17 18 18 18 18 19
19 19 19 19 19 20 20 21 21 22 22 22 22 22 22 22 23 23 23 22 22 22 21 21 20 20 19 18 18 19 19 18 18 18 18 18 18 18 17 17 17 17 17 18
19 19 20 19 19 20 20 20 20 20 21 21 21 21 21 21 22 22 21 21 20 20 20 21 21 20 19 19 19 19 19 18 19 19 19 18 17 17 17 16 17 18 18 19
19 19 20 19 19 19 19 20 19 19 20 20 20 20 21 21 21 21 21 21 21 20 19 20 20 20 20 19 19 19 19 19 18 18 18 18 17 17 16 16 17 17 17 18
18 19 19 19 19 19 19 20 20 20 20 21 21 21 21 21 21 21 21 21 21 20 20 21 20 20 19 19 19 19 18 18 17 17 18 17 16 16 15 15 15 16 16 17
18 18 19 19 19 20 20 20 20 20 21 21 21 21 21 21 21 20 21 21 20 20 21 20 19 19 19 19 18 18 17 17 17 17 17 16 15 14 14 14 15 15 15 16
18 18 18 19 20 21 21 21 20 20 20 21 21 21 21 21 21 21 21 21 21 21 20 19 18 18 18 18 18 17 17 17 17 17 16 15 14 14 14 14 14 14 14 14
19 19 19 20 20 20 21 21 20 20 20 21 21 22 22 21 21 21 21 21 21 20 19 19 18 17 18 17 17 16 16 17 16 15 14 14 14 14 14 13 13 13 13 13
20 20 20 20 21 20 20 20 20 20 21 22 22 22 22 22 22 22 22 21 21 20 19 18 18 18 18 17 16 16 16 15 14 13 13 13 13 13 13 13 13 12 12 12
20 20 20 20 20 20 20 20 20 20 21 22 22 23 23 24 24 23 22 22 21 20 19 19 18 17 17 16 16 15 14 13 13 13 13 13 13 13 12 12 12 12 11 11
19 19 20 20 20 20 21 21 21 21 21 21 21 22 23 23 23 23 22 22 21 20 19 19 18 17 16 16 15 15 13 13 12 12 12 12 12 11 11 11 11 11 11 10
18 19 19 20 20 21 21 21 21 21 21 21 21 22 22 22 22 21 20 20 20 19 19 19 18 17 16 15 15 14 13 12 11 11 11 11 11 10 10 10 10 10 10 9
18 19 19 19 19 20 20 21 21 21 20 20 21 21 21 21 21 20 19 19 18 18 18 17 17 16 15 14 13 12 12 12 12 11 11 11 11 10 9 10 9 9 9 10
19 19 19 19 19 20 20 21 20 20 20 20 20 20 21 21 20 19 19 18 17 17 16 15 14 14 14 12 11 11 11 11 11 11 10 10 10 10 10 10 9 9 9 8
19 19 19 19 19 19 19 19 19 19 19 20 20 21 21 20 19 18 17 17 16 15 14 14 14 13 12 11 10 11 11 10 10 9 9 9 9 10 10 9 9 8 8 7
20 20 20 19 19 19 19 19 19 19 19 20 20 20 20 19 18 17 16 15 14 13 13 13 13 12 11 10 10 10 10 10 10 9 9 9 9 9 9 8 8 7 6 5
19 19 19 19 19 19 19 19 18 19 19 20 19 19 18 18 17 15 14 13 12 12 12 11 11 11 10 10 9 9 9 9 10 9 9 9 9 9 8 7 6 6 5 5
18 18 19 19 18 18 18 18 18 18 18 18 18 17 17 16 15 14 13 12 12 12 11 11 11 11 10 10 9 9 8 8 8 8 8 8 8 8 7 6 5 5 5 5
Wind_Direction
274 277 278 276 276 274 275 277 279 282 283 287 290 292 296 299 300 302 305 304 302 301 300 298 298 298 295 292 286 279 276 273 271 269 268 267 265 262 261 261 260 259 259 259
273 275 276 275 276 275 275 277 279 279 282 287 291 295 298 300 300 302 305 306 306 305 304 301 299 299 296 293 287 284 280 274 270 271 270 266 264 262 262 261 261 261 259 259
272 274 277 276 277 276 276 278 279 280 282 286 290 294 297 299 301 304 306 306 306 309 307 302 301 301 297 294 291 287 281 275 276 273 269 267 264 262 261 262 262 261 260 258
276 276 278 282 281 279 278 279 280 282 284 286 289 293 297 301 304 305 305 305 306 307 308 306 303 302 299 295 292 288 283 280 280 275 269 266 265 262 263 263 263 261 260 257
276 278 280 283 282 281 281 281 282 284 286 286 289 292 297 301 304 308 308 307 307 308 307 306 303 302 299 295 292 291 289 286 281 276 272 268 266 262 263 265 262 260 259 256
274 278 283 286 283 282 282 281 281 282 284 286 288 291 296 299 302 305 309 309 310 309 309 307 305 304 300 296 295 293 290 288 283 276 271 267 267 265 267 266 263 261 260 258
276 279 285 287 286 284 284 284 283 284 286 287 290 293 296 296 299 303 307 308 310 311 311 310 308 306 301 297 294 294 291 288 287 281 275 270 267 267 267 266 265 263 262 260
276 280 287 288 288 285 285 285 285 287 288 290 293 295 296 296 298 301 304 307 309 310 310 309 309 308 304 299 295 294 292 290 290 286 282 278 274 272 271 270 269 264 261 260
274 280 286 288 288 285 284 284 284 286 288 290 293 296 297 297 296 298 302 306 308 310 310 310 309 307 304 300 297 295 293 290 290 288 285 282 279 275 274 273 270 264 260 260
276 278 282 286 286 285 285 286 285 286 289 291 293 296 298 298 297 298 302 305 308 308 307 308 307 304 302 300 297 295 293 292 290 289 288 287 283 278 276 274 269 264 263 265
278 278 281 285 286 285 286 286 286 287 289 292 294 295 298 299 299 301 302 304 306 308 307 307 306 303 299 297 296 295 295 294 292 291 289 286 284 280 277 274 267 264 264 268
278 280 281 283 284 284 285 286 287 289 290 292 295 297 299 300 301 303 303 305 306 306 306 306 304 300 298 296 296 296 294 292 291 291 292 289 285 282 278 272 266 263 265 268
279 280 281 280 283 284 283 284 286 289 291 294 295 297 301 303 303 303 304 306 307 305 305 306 304 300 297 297 298 297 294 292 292 292 292 291 286 282 277 270 266 265 267 269
280 280 281 280 281 283 284 285 286 288 290 293 295 298 301 303 303 303 305 307 308 306 305 305 303 301 300 300 299 297 296 295 294 294 293 292 288 283 277 273 270 270 269 269
284 285 284 284 283 283 285 287 288 289 290 293 296 299 302 303 302 301 304 306 307 307 305 304 302 302 302 302 301 299 298 296 294 294 293 290 288 282 276 275 275 275 273 270
285 285 286 287 287 286 286 287 288 290 292 294 296 298 301 303 302 300 301 302 303 304 303 301 300 301 301 302 302 301 299 297 294 292 292 289 287 282 279 279 280 279 275 272
284 284 285 288 290 289 288 287 288 290 292 294 297 299 300 301 300 301 301 300 299 300 300 299 298 300 302 302 301 299 298 297 296 292 290 289 287 285 283 283 283 280 277 274
285 285 285 287 288 287 287 287 288 292 294 296 299 300 301 301 300 299 299 298 297 297 297 298 298 299 300 302 302 300 298 297 295 293 291 289 288 287 286 286 283 282 279 276
285 285 285 286 287 286 286 287 290 293 296 298 299 300 301 301 300 299 296 294 294 294 294 295 296 295 296 299 300 300 297 295 294 294 294 293 293 291 291 291 286 282 280 278
285 286 285 285 287 288 287 288 289 292 296 299 300 301 302 302 301 298 296 294 294 293 292 291 292 292 293 294 295 295 294 293 294 294 295 296 295 292 292 292 288 284 281 280
287 288 288 287 288 289 289 289 289 292 294 297 300 302 303 304 302 299 297 295 294 292 291 289 290 289 289 289 290 289 290 290 290 293 294 295 294 292 292 292 290 289 284 282
287 289 290 289 290 291 291 290 290 292 294 295 299 301 302 303 303 300 297 295 294 293 291 289 288 287 287 286 284 284 284 284 285 287 289 292 292 291 292 294 293 292 289 284
287 288 289 289 291 293 293 293 292 292 293 295 298 302 304 304 303 301 298 296 295 293 290 288 288 288 286 281 280 281 281 281 282 283 285 288 288 289 290 293 292 293 293 288
286 287 289 290 291 294 295 294 294 294 294 296 299 302 303 303 302 301 299 298 296 293 289 287 287 287 284 278 278 280 280 279 279 279 281 286 287 287 288 287 287 288 290 286
286 287 288 290 291 293 294 294 295 296 297 298 300 302 303 302 301 301 301 299 296 293 291 289 289 287 283 282 282 283 281 279 277 276 277 282 284 286 288 287 281 278 278 273
289 289 290 291 293 294 295 296 296 297 299 300 300 301 302 302 300 298 298 299 297 293 290 288 288 286 284 283 284 285 284 281 277 275 276 280 281 283 283 280 274 268 265 262
291 291 291 291 292 294 296 296 296 298 300 300 300 301 302 302 299 297 295 294 294 291 288 287 287 285 283 281 280 280 281 282 281 279 279 279 279 279 273 266 262 259 255 253
Height
5606 5606 5605 5605 5605 5605 5604 5604 5604 5604 5603 5602 5599 5597 5595 5592 5589 5585 5582 5578 5574 5571 5567 5564 5560 5557 5555 5552 5551 5550 5549 5550 5550 5551 5552 5552 5553 5554 5555 5556 5556 5557 5558 5560
5601 5601 5600 5600 5600 5600 5599 5599 5599 5598 5598 5596 5594 5591 5588 5586 5583 5579 5575 5571 5568 5564 5560 5556 5554 5551 5548 5546 5544 5543 5543 5543 5543 5544 5544 5545 5545 5546 5547 5548 5548 5549 5550 5552
5596 5596 5595 5596 5596 5595 5595 5595 5594 5593 5593 5590 5588 5586 5583 5580 5577 5573 5569 5565 5562 5558 5554 5550 5548 5545 5543 5540 5539 5538 5537 5537 5537 5537 5537 5537 5538 5539 5540 5541 5542 5542 5543 5545
5590 5592 5591 5594 5591 5590 5590 5589 5588 5587 5586 5584 5582 5580 5577 5574 5571 5567 5564 5560 5557 5553 5549 5546 5543 5540 5538 5536 5534 5533 5532 5532 5532 5531 5531 5531 5532 5533 5534 5534 5535 5536 5537 5539
5586 5586 5586 5587 5586 5585 5584 5584 5583 5582 5581 5579 5577 5576 5573 5569 5566 5562 5559 5555 5552 5549 5545 5542 5539 5536 5534 5532 5531 5529 5528 5527 5527 5526 5526 5526 5526 5527 5528 5528 5528 5529 5530 5532
5581 5581 5581 5583 5581 5579 5580 5579 5578 5576 5575 5574 5572 5571 5569 5565 5561 5558 5554 5551 5547 5544 5541 5538 5535 5532 5530 5529 5527 5525 5524 5523 5522 5521 5520 5521 5521 5521 5521 5521 5522 5523 5524 5525
5576 5575 5576 5576 5575 5575 5575 5574 5572 5570 5569 5568 5566 5564 5562 5559 5556 5553 5550 5546 5543 5540 5537 5533 5530 5528 5526 5524 5523 5521 5520 5518 5517 5516 5516 5515 5515 5515 5515 5515 5516 5517 5518 5519
5571 5571 5573 5570 5569 5569 5568 5567 5566 5565 5563 5562 5560 5558 5555 5553 5551 5548 5545 5542 5539 5536 5533 5529 5527 5524 5522 5520 5519 5517 5516 5514 5513 5512 5511 5510 5510 5510 5509 5509 5510 5511 5512 5513
5567 5568 5566 5565 5563 5562 5562 5561 5560 5559 5558 5556 5555 5552 5550 5548 5545 5543 5540 5537 5534 5531 5528 5525 5522 5520 5518 5516 5514 5513 5511 5510 5509 5507 5506 5505 5505 5505 5504 5504 5505 5506 5507 5508
5562 5562 5561 5559 5558 5557 5556 5555 5554 5553 5552 5550 5549 5547 5545 5542 5540 5537 5535 5532 5529 5526 5523 5521 5518 5515 5513 5511 5509 5508 5507 5505 5504 5503 5502 5501 5500 5500 5499 5499 5500 5501 5501 5502
5556 5556 5556 5555 5553 5552 5551 5550 5549 5548 5546 5545 5543 5541 5539 5537 5534 5532 5529 5527 5524 5521 5518 5516 5513 5510 5509 5507 5505 5504 5502 5500 5499 5498 5497 5496 5495 5494 5494 5494 5494 5495 5496 5496
5551 5551 5550 5550 5548 5547 5546 5545 5544 5542 5541 5539 5537 5535 5533 5531 5529 5526 5524 5521 5519 5516 5514 5511 5508 5506 5504 5502 5500 5499 5497 5496 5494 5493 5492 5491 5490 5489 5489 5489 5489 5490 5490 5491
5546 5545 5545 5544 5543 5542 5541 5540 5538 5537 5536 5534 5532 5530 5528 5526 5524 5521 5519 5516 5514 5511 5509 5506 5504 5501 5499 5497 5495 5493 5492 5490 5489 5488 5487 5486 5485 5485 5484 5484 5484 5484 5484 5485
5540 5540 5540 5539 5538 5537 5536 5534 5533 5532 5530 5529 5527 5525 5523 5521 5518 5516 5514 5511 5509 5506 5504 5501 5499 5496 5494 5492 5490 5488 5487 5485 5484 5483 5482 5481 5480 5480 5479 5479 5479 5479 5479 5479
5536 5535 5534 5533 5533 5532 5530 5529 5528 5527 5525 5524 5522 5520 5518 5516 5513 5511 5509 5506 5504 5501 5499 5496 5494 5491 5489 5487 5485 5483 5482 5481 5480 5479 5478 5477 5476 5475 5475 5475 5474 5474 5474 5474
5531 5530 5529 5528 5527 5526 5525 5524 5523 5521 5520 5518 5516 5515 5512 5510 5508 5505 5503 5501 5499 5496 5493 5491 5489 5487 5485 5483 5481 5479 5478 5476 5475 5474 5473 5472 5472 5471 5471 5471 5470 5470 5470 5470
5526 5525 5524 5523 5522 5521 5520 5519 5517 5516 5514 5513 5511 5509 5507 5505 5503 5500 5498 5495 5493 5491 5488 5486 5485 5483 5481 5479 5477 5475 5474 5473 5471 5470 5469 5469 5468 5468 5467 5466 5466 5466 5465 5465
5520 5519 5518 5517 5516 5515 5514 5513 5512 5511 5509 5507 5505 5503 5501 5499 5497 5495 5492 5490 5487 5485 5483 5482 5480 5478 5476 5475 5473 5471 5470 5468 5467 5466 5466 5465 5464 5464 5463 5463 5462 5462 5462 5462
5514 5514 5513 5512 5511 5509 5508 5507 5506 5505 5503 5502 5500 5497 5495 5493 5490 5488 5486 5484 5482 5480 5478 5476 5475 5473 5472 5470 5469 5467 5466 5465 5464 5463 5462 5461 5461 5460 5460 5459 5459 5458 5458 5458
5508 5508 5507 5506 5505 5504 5503 5501 5500 5499 5497 5496 5494 5491 5489 5486 5484 5482 5480 5478 5476 5474 5473 5471 5470 5468 5467 5466 5464 5463 5462 5461 5460 5460 5459 5458 5457 5457 5456 5456 5455 5455 5455 5454
5503 5502 5501 5500 5499 5497 5496 5495 5494 5493 5491 5489 5487 5485 5483 5480 5478 5476 5473 5472 5470 5468 5467 5466 5464 5463 5462 5461 5460 5459 5458 5458 5457 5456 5456 5455 5454 5454 5453 5453 5452 5452 5452 5451
5497 5496 5495 5494 5493 5491 5490 5489 5487 5486 5485 5483 5481 5479 5477 5474 5472 5470 5468 5466 5464 5463 5461 5460 5459 5458 5457 5457 5456 5455 5455 5455 5454 5453 5453 5452 5452 5451 5451 5450 5450 5449 5449 5448
5492 5491 5489 5488 5487 5485 5484 5482 5481 5480 5478 5477 5475 5473 5471 5469 5466 5464 5463 5461 5459 5458 5457 5456 5455 5454 5453 5453 5452 5452 5451 5451 5451 5450 5450 5450 5449 5449 5448 5448 5447 5447 5446 5446
5486 5485 5484 5482 5481 5479 5478 5477 5475 5474 5472 5471 5469 5467 5465 5463 5461 5459 5457 5456 5454 5453 5452 5451 5451 5450 5449 5449 5449 5449 5448 5448 5448 5447 5447 5447 5446 5446 5445 5445 5445 5444 5444 5443
5480 5479 5478 5476 5475 5474 5472 5471 5470 5468 5467 5465 5463 5461 5459 5457 5456 5454 5453 5451 5450 5449 5448 5447 5447 5446 5446 5446 5446 5445 5445 5445 5445 5445 5444 5444 5444 5443 5443 5442 5442 5441 5441 5441
5474 5473 5472 5471 5470 5468 5467 5466 5464 5463 5461 5460 5458 5456 5455 5453 5451 5450 5449 5447 5446 5445 5445 5444 5443 5443 5443 5443 5442 5442 5442 5442 5442 5442 5442 5441 5441 5440 5440 5439 5439 5439 5440 5440
5469 5468 5467 5465 5464 5463 5462 5461 5459 5458 5456 5455 5453 5452 5450 5449 5447 5446 5445 5444 5443 5442 5441 5441 5440 5440 5439 5439 5439 5439 5439 5439 5439 5439 5439 5439 5438 5438 5438 5438 5438 5438 5438 5438